STARLINK-35803

Last updated on Wed Dec 31 2025 00:02:06 GMT+0000 (Coordinated Universal Time)

1 66568U 25268M 25364.58335648 -.01650625 00000+0 -58013-1 0 9990 2 66568 43.0008 17.0023 0001447 275.4717 124.3611 15.31800747 6022

Satellite not in orbit